Torna al catalogo

STARLINK-31192

AttivoComunicazioniVLEO
NORAD 58794·PAYLOAD·🇺🇸 United States

Lanciato Jan 15, 2024 da Cape Canaveral Space Force Station

Loading…

Prossimi Passaggi (prossime 24 ore)

TLE

AggiornatoSource: CelesTrak SupGP

Epoca: Sep 15, 2026, 02:00 UTC

1 58794C 24012H   26258.08381944 -.00036458  00000+0 -13206-2 0  2581
2 58794  42.9997 175.9742 0001309 272.9275 226.8750 15.27594529    17

Traccia STARLINK-31192 in tempo reale con AllMySat

Download on the App Store